FFT3220 KSLC-KDEN

Flight info

Callsign FFT3220
Flight time 1h 5m
Altitude 39000
Route RUGGD3 PERTY KAMPR LONGZ4
Aircraft A20N/M-SDE2E3FGHIRWXY/LB1

Departure

Time 2026-05-06 02:00
Airport Salt Lake City International Airport (KSLC)

Arrival

Time 2026-05-06 03:06
Airport Denver International Airport (KDEN)
Time Latitude Longitude Altitude Speed Heading
2026-05-06 00:51 40.78919 -111.99134 4231 ft 0 kts 175°
2026-05-06 01:45 40.78924 -111.99135 4231 ft 3 kts 176°
2026-05-06 01:45 40.78945 -111.99135 4231 ft 3 kts 187°
2026-05-06 01:45 40.78962 -111.99131 4231 ft 0 kts 197°
2026-05-06 01:49 40.78963 -111.99131 4231 ft 1 kts 197°
2026-05-06 01:49 40.78981 -111.99121 4231 ft 3 kts 212°
2026-05-06 01:49 40.78997 -111.99105 4231 ft 3 kts 236°
2026-05-06 01:49 40.79004 -111.99087 4231 ft 0 kts 265°
2026-05-06 01:52 40.79003 -111.99096 4231 ft 3 kts 265°
2026-05-06 01:52 40.79002 -111.99127 4231 ft 5 kts 265°
2026-05-06 01:52 40.78998 -111.99184 4231 ft 8 kts 265°
2026-05-06 01:52 40.78998 -111.99267 4231 ft 10 kts 292°
2026-05-06 01:53 40.79026 -111.99288 4231 ft 4 kts 348°
2026-05-06 01:53 40.79050 -111.99292 4231 ft 4 kts 354°
2026-05-06 01:53 40.79088 -111.99301 4231 ft 7 kts 333°
2026-05-06 01:53 40.79101 -111.99367 4231 ft 9 kts 266°
2026-05-06 01:54 40.79094 -111.99462 4231 ft 12 kts 266°
2026-05-06 01:54 40.79143 -111.99522 4231 ft 12 kts 351°
2026-05-06 01:54 40.79235 -111.99534 4231 ft 15 kts 355°
2026-05-06 01:54 40.79348 -111.99546 4231 ft 18 kts 355°
2026-05-06 01:55 40.79477 -111.99561 4230 ft 20 kts 355°
2026-05-06 01:55 40.79624 -111.99578 4230 ft 22 kts 355°
2026-05-06 01:55 40.79784 -111.99597 4231 ft 24 kts 355°
2026-05-06 01:55 40.79956 -111.99617 4231 ft 26 kts 355°
2026-05-06 01:56 40.80140 -111.99637 4231 ft 27 kts 355°
2026-05-06 01:56 40.80333 -111.99660 4231 ft 29 kts 355°
2026-05-06 01:56 40.80533 -111.99684 4231 ft 25 kts 355°
2026-05-06 01:56 40.80672 -111.99699 4230 ft 13 kts 355°
2026-05-06 01:57 40.80751 -111.99713 4230 ft 7 kts 340°
2026-05-06 01:57 40.80772 -111.99763 4230 ft 4 kts 269°
2026-05-06 01:57 40.80771 -111.99786 4230 ft 0 kts 266°
2026-05-06 01:59 40.80770 -111.99805 4230 ft 4 kts 266°
2026-05-06 01:59 40.80767 -111.99859 4230 ft 8 kts 265°
2026-05-06 01:59 40.80745 -111.99923 4230 ft 7 kts 210°
2026-05-06 01:59 40.80691 -111.99924 4231 ft 11 kts 175°
2026-05-06 02:00 40.80434 -111.99893 4232 ft 71 kts 174°
2026-05-06 02:00 40.79738 -111.99811 4230 ft 128 kts 175°
2026-05-06 02:00 40.78697 -111.99689 4265 ft 168 kts 174°
2026-05-06 02:00 40.77551 -111.99549 4899 ft 165 kts 174°
2026-05-06 02:01 40.76388 -111.99532 5447 ft 173 kts 197°
2026-05-06 02:01 40.75422 -112.00401 5964 ft 179 kts 234°
2026-05-06 02:01 40.75042 -112.02047 6340 ft 204 kts 269°
2026-05-06 02:01 40.75501 -112.03929 6675 ft 234 kts 302°
2026-05-06 02:02 40.76515 -112.05761 7166 ft 256 kts 306°
2026-05-06 02:02 40.77570 -112.07708 8019 ft 264 kts 306°
2026-05-06 02:02 40.78615 -112.09723 8878 ft 275 kts 306°
2026-05-06 02:02 40.79700 -112.11822 9876 ft 278 kts 306°
2026-05-06 02:03 40.80804 -112.13983 10583 ft 293 kts 306°
2026-05-06 02:03 40.81979 -112.16312 11008 ft 316 kts 306°
2026-05-06 02:03 40.83234 -112.18796 11551 ft 330 kts 306°
2026-05-06 02:03 40.84505 -112.21318 12556 ft 331 kts 306°
2026-05-06 02:04 40.85826 -112.23826 13461 ft 333 kts 313°
2026-05-06 02:04 40.87623 -112.25728 14265 ft 334 kts 333°
2026-05-06 02:04 40.89835 -112.26631 15063 ft 337 kts 353°
2026-05-06 02:04 40.92184 -112.26420 15823 ft 344 kts 13°
2026-05-06 02:05 40.94382 -112.25102 16598 ft 353 kts 32°
2026-05-06 02:05 40.96167 -112.22812 17378 ft 366 kts 50°
2026-05-06 02:05 40.97334 -112.19780 18138 ft 378 kts 68°
2026-05-06 02:05 40.97747 -112.16299 18798 ft 390 kts 86°
2026-05-06 02:06 40.97534 -112.12681 19478 ft 397 kts 92°
2026-05-06 02:06 40.97210 -112.09018 20081 ft 403 kts 92°
2026-05-06 02:06 40.96869 -112.05317 20765 ft 406 kts 92°
2026-05-06 02:06 40.96528 -112.01594 21421 ft 410 kts 92°
2026-05-06 02:07 40.96189 -111.97827 22055 ft 414 kts 92°
2026-05-06 02:07 40.95851 -111.94032 22701 ft 417 kts 92°
2026-05-06 02:07 40.95510 -111.90192 23315 ft 421 kts 92°
2026-05-06 02:07 40.95167 -111.86330 23863 ft 425 kts 92°
2026-05-06 02:08 40.94820 -111.82448 24420 ft 426 kts 91°
2026-05-06 02:08 40.94470 -111.78533 24920 ft 431 kts 91°
2026-05-06 02:08 40.94114 -111.74570 25283 ft 436 kts 91°
2026-05-06 02:08 40.93752 -111.70583 25850 ft 438 kts 91°
2026-05-06 02:09 40.93387 -111.66580 26368 ft 440 kts 91°
2026-05-06 02:09 40.93021 -111.62563 26948 ft 441 kts 91°
2026-05-06 02:09 40.92657 -111.58581 27412 ft 443 kts 91°
2026-05-06 02:09 40.92284 -111.54514 27846 ft 447 kts 91°
2026-05-06 02:10 40.91907 -111.50427 28300 ft 450 kts 91°
2026-05-06 02:10 40.91527 -111.46312 28745 ft 452 kts 91°
2026-05-06 02:10 40.91144 -111.42189 29155 ft 455 kts 91°
2026-05-06 02:10 40.90733 -111.38025 29558 ft 458 kts 92°
2026-05-06 02:11 40.90253 -111.33840 29960 ft 462 kts 92°
2026-05-06 02:11 40.89747 -111.29637 30318 ft 464 kts 92°
2026-05-06 02:11 40.89236 -111.25410 30668 ft 467 kts 92°
2026-05-06 02:11 40.88725 -111.21164 31046 ft 468 kts 92°
2026-05-06 02:12 40.88216 -111.16914 31479 ft 468 kts 92°
2026-05-06 02:12 40.87707 -111.12667 31971 ft 468 kts 92°
2026-05-06 02:12 40.87197 -111.08400 32267 ft 471 kts 92°
2026-05-06 02:12 40.86684 -111.04126 32730 ft 470 kts 92°
2026-05-06 02:13 40.86171 -110.99870 33199 ft 469 kts 92°
2026-05-06 02:13 40.85831 -110.97054 33493 ft 468 kts 92°
2026-05-06 02:13 40.85158 -110.91493 34020 ft 467 kts 93°
2026-05-06 02:13 40.84644 -110.87254 34356 ft 468 kts 93°
2026-05-06 02:14 40.84130 -110.83018 34660 ft 468 kts 93°
2026-05-06 02:14 40.83614 -110.78776 34948 ft 469 kts 94°
2026-05-06 02:14 40.83093 -110.74501 35157 ft 472 kts 94°
2026-05-06 02:14 40.82569 -110.70233 35461 ft 472 kts 94°
2026-05-06 02:15 40.82042 -110.65960 35748 ft 472 kts 94°
2026-05-06 02:15 40.81513 -110.61690 36040 ft 472 kts 95°
2026-05-06 02:15 40.80981 -110.57404 36306 ft 472 kts 95°
2026-05-06 02:15 40.80449 -110.53134 36555 ft 473 kts 95°
2026-05-06 02:16 40.79915 -110.48852 36816 ft 473 kts 95°
2026-05-06 02:16 40.79379 -110.44563 37034 ft 475 kts 96°
2026-05-06 02:16 40.78838 -110.40255 37229 ft 476 kts 96°
2026-05-06 02:16 40.78295 -110.35953 37497 ft 476 kts 96°
2026-05-06 02:17 40.77750 -110.31645 37767 ft 475 kts 96°
2026-05-06 02:17 40.77205 -110.27350 38032 ft 474 kts 97°
2026-05-06 02:17 40.76659 -110.23055 38242 ft 475 kts 97°
2026-05-06 02:17 40.76111 -110.18762 38478 ft 475 kts 97°
2026-05-06 02:18 40.75561 -110.14469 38660 ft 475 kts 97°
2026-05-06 02:18 40.75009 -110.10175 38776 ft 477 kts 97°
2026-05-06 02:18 40.74172 -110.02980 38832 ft 476 kts 93°
2026-05-06 02:19 40.73513 -109.92875 38831 ft 475 kts 92°
2026-05-06 02:19 40.72939 -109.84200 38837 ft 475 kts 93°
2026-05-06 02:20 40.72054 -109.71171 38823 ft 478 kts 93°
2026-05-06 02:21 40.71552 -109.63924 38836 ft 477 kts 93°
2026-05-06 02:21 40.70945 -109.55239 38837 ft 475 kts 93°
2026-05-06 02:22 40.70333 -109.46575 38849 ft 474 kts 93°
2026-05-06 02:22 40.69714 -109.37877 38859 ft 480 kts 93°
2026-05-06 02:23 40.69083 -109.29124 38838 ft 479 kts 93°
2026-05-06 02:23 40.68447 -109.20392 38830 ft 479 kts 94°
2026-05-06 02:24 40.67803 -109.11651 38844 ft 479 kts 94°
2026-05-06 02:24 40.67152 -109.02831 38823 ft 486 kts 93°
2026-05-06 02:25 40.66586 -108.93992 38831 ft 484 kts 93°
2026-05-06 02:25 40.66035 -108.85155 38832 ft 484 kts 93°
2026-05-06 02:26 40.65462 -108.76308 38856 ft 486 kts 93°
2026-05-06 02:26 40.64872 -108.67365 38835 ft 493 kts 93°
2026-05-06 02:27 40.64271 -108.58393 38837 ft 491 kts 93°
2026-05-06 02:27 40.63667 -108.49447 38837 ft 491 kts 93°
2026-05-06 02:28 40.63055 -108.40484 38848 ft 494 kts 94°
2026-05-06 02:28 40.62429 -108.31417 38840 ft 498 kts 94°
2026-05-06 02:29 40.61797 -108.22383 38841 ft 495 kts 94°
2026-05-06 02:29 40.61159 -108.13354 38846 ft 496 kts 94°
2026-05-06 02:30 40.60512 -108.04315 38847 ft 496 kts 94°
2026-05-06 02:30 40.59860 -107.95281 38857 ft 496 kts 94°
2026-05-06 02:31 40.59202 -107.86294 38865 ft 487 kts 94°
2026-05-06 02:31 40.58556 -107.77533 38906 ft 480 kts 94°
2026-05-06 02:32 40.57903 -107.68750 38927 ft 484 kts 95°
2026-05-06 02:32 40.57242 -107.59947 38940 ft 483 kts 95°
2026-05-06 02:33 40.56579 -107.51146 38944 ft 484 kts 95°
2026-05-06 02:33 40.56358 -107.48226 38945 ft 484 kts 95°
2026-05-06 02:34 40.55233 -107.33534 38953 ft 484 kts 95°
2026-05-06 02:34 40.54548 -107.24725 38960 ft 484 kts 95°
2026-05-06 02:35 40.53856 -107.15913 38960 ft 485 kts 95°
2026-05-06 02:35 40.53163 -107.07163 38952 ft 485 kts 96°
2026-05-06 02:36 40.52459 -106.98356 38934 ft 485 kts 96°
2026-05-06 02:36 40.51748 -106.89534 38872 ft 485 kts 97°
2026-05-06 02:36 40.51389 -106.85083 38735 ft 481 kts 97°
2026-05-06 02:37 40.51037 -106.80781 38302 ft 479 kts 97°
2026-05-06 02:37 40.50674 -106.76381 37592 ft 480 kts 96°
2026-05-06 02:37 40.50317 -106.72072 36785 ft 482 kts 96°
2026-05-06 02:37 40.49951 -106.67684 35905 ft 485 kts 96°
2026-05-06 02:38 40.49580 -106.63260 34693 ft 490 kts 95°
2026-05-06 02:38 40.49203 -106.58784 33466 ft 494 kts 94°
2026-05-06 02:38 40.48827 -106.54317 32524 ft 488 kts 95°
2026-05-06 02:38 40.48453 -106.49943 31899 ft 476 kts 95°
2026-05-06 02:39 40.48071 -106.45653 31148 ft 469 kts 95°
2026-05-06 02:39 40.47690 -106.41443 30616 ft 461 kts 95°
2026-05-06 02:39 40.47313 -106.37276 30033 ft 459 kts 95°
2026-05-06 02:39 40.46938 -106.33120 29422 ft 457 kts 97°
2026-05-06 02:40 40.46569 -106.28993 28816 ft 454 kts 97°
2026-05-06 02:40 40.46197 -106.24888 28234 ft 451 kts 97°
2026-05-06 02:40 40.45825 -106.20816 27654 ft 448 kts 97°
2026-05-06 02:40 40.45455 -106.16782 27068 ft 445 kts 97°
2026-05-06 02:41 40.45089 -106.12763 26600 ft 441 kts 97°
2026-05-06 02:41 40.44733 -106.08686 26260 ft 457 kts 97°
2026-05-06 02:41 40.44372 -106.04518 25888 ft 460 kts 97°
2026-05-06 02:41 40.44012 -106.00367 25488 ft 455 kts 97°
2026-05-06 02:42 40.43656 -105.96273 25130 ft 448 kts 98°
2026-05-06 02:42 40.43298 -105.92213 24786 ft 448 kts 98°
2026-05-06 02:42 40.42761 -105.88192 24412 ft 446 kts 104°
2026-05-06 02:42 40.42130 -105.84230 24046 ft 443 kts 103°
2026-05-06 02:43 40.41509 -105.80288 23663 ft 441 kts 104°
2026-05-06 02:43 40.40889 -105.76354 23282 ft 437 kts 103°
2026-05-06 02:43 40.40274 -105.72467 22918 ft 435 kts 103°
2026-05-06 02:43 40.39657 -105.68580 22543 ft 433 kts 103°
2026-05-06 02:44 40.39046 -105.64735 22199 ft 428 kts 103°
2026-05-06 02:44 40.38444 -105.60958 21850 ft 420 kts 103°
2026-05-06 02:44 40.37848 -105.57231 21385 ft 415 kts 103°
2026-05-06 02:44 40.37260 -105.53566 20973 ft 409 kts 103°
2026-05-06 02:45 40.36771 -105.50520 20709 ft 406 kts 103°
2026-05-06 02:45 40.36520 -105.48959 20683 ft 401 kts 103°
2026-05-06 02:45 40.35955 -105.45444 20534 ft 389 kts 103°
2026-05-06 02:45 40.35399 -105.41998 20174 ft 385 kts 103°
2026-05-06 02:46 40.34790 -105.38597 19735 ft 381 kts 110°
2026-05-06 02:46 40.33722 -105.35450 19269 ft 376 kts 124°
2026-05-06 02:46 40.32206 -105.32696 18839 ft 370 kts 132°
2026-05-06 02:46 40.30635 -105.30062 18528 ft 363 kts 131°
2026-05-06 02:47 40.29095 -105.27462 18136 ft 360 kts 131°
2026-05-06 02:47 40.27583 -105.24904 17880 ft 351 kts 131°
2026-05-06 02:47 40.26095 -105.22379 17677 ft 351 kts 131°
2026-05-06 02:47 40.24592 -105.19848 17469 ft 352 kts 131°
2026-05-06 02:48 40.23092 -105.17329 17258 ft 350 kts 131°
2026-05-06 02:48 40.21603 -105.14825 17049 ft 348 kts 131°
2026-05-06 02:48 40.20121 -105.12333 16843 ft 346 kts 131°
2026-05-06 02:48 40.18644 -105.09854 16640 ft 345 kts 131°
2026-05-06 02:49 40.17171 -105.07382 16441 ft 344 kts 131°
2026-05-06 02:49 40.15709 -105.04924 16284 ft 342 kts 131°
2026-05-06 02:49 40.14219 -105.02508 16112 ft 340 kts 137°
2026-05-06 02:49 40.12570 -105.00357 15961 ft 340 kts 140°
2026-05-06 02:50 40.10864 -104.98169 15703 ft 339 kts 140°
2026-05-06 02:50 40.09208 -104.96037 15414 ft 336 kts 139°
2026-05-06 02:50 40.07602 -104.93968 15120 ft 333 kts 139°
2026-05-06 02:50 40.05978 -104.91875 14863 ft 331 kts 140°
2026-05-06 02:51 40.04353 -104.89780 14565 ft 326 kts 140°
2026-05-06 02:51 40.02771 -104.87744 14287 ft 322 kts 140°
2026-05-06 02:51 40.01171 -104.85689 14003 ft 323 kts 140°
2026-05-06 02:51 39.99583 -104.83650 13710 ft 318 kts 140°
2026-05-06 02:52 39.97967 -104.81725 13428 ft 312 kts 150°
2026-05-06 02:52 39.96021 -104.80618 13163 ft 302 kts 173°
2026-05-06 02:52 39.93952 -104.80483 12901 ft 299 kts 186°
2026-05-06 02:52 39.91877 -104.80548 12753 ft 295 kts 185°
2026-05-06 02:53 39.89864 -104.80606 12659 ft 284 kts 185°
2026-05-06 02:53 39.87945 -104.80656 12516 ft 267 kts 185°
2026-05-06 02:53 39.86152 -104.80702 12274 ft 254 kts 185°
2026-05-06 02:53 39.84405 -104.80751 11931 ft 245 kts 185°
2026-05-06 02:54 39.82745 -104.80796 11840 ft 232 kts 185°
2026-05-06 02:54 39.81168 -104.80837 11682 ft 222 kts 184°
2026-05-06 02:54 39.79633 -104.80881 11340 ft 220 kts 184°
2026-05-06 02:54 39.78111 -104.80926 11022 ft 218 kts 183°
2026-05-06 02:55 39.76599 -104.80965 10721 ft 216 kts 182°
2026-05-06 02:55 39.75109 -104.81000 10443 ft 213 kts 182°
2026-05-06 02:55 39.73628 -104.81036 10128 ft 212 kts 181°
2026-05-06 02:55 39.72162 -104.81071 9784 ft 212 kts 180°
2026-05-06 02:56 39.70694 -104.81105 9453 ft 210 kts 180°
2026-05-06 02:56 39.69233 -104.81139 9124 ft 209 kts 180°
2026-05-06 02:56 39.67797 -104.81170 8967 ft 207 kts 180°
2026-05-06 02:56 39.66330 -104.81200 8960 ft 212 kts 180°
2026-05-06 02:57 39.64865 -104.81232 8958 ft 210 kts 179°
2026-05-06 02:57 39.63406 -104.81263 8969 ft 209 kts 179°
2026-05-06 02:57 39.61939 -104.81294 8969 ft 210 kts 179°
2026-05-06 02:57 39.60510 -104.81324 8968 ft 201 kts 179°
2026-05-06 02:58 39.59145 -104.81102 8971 ft 198 kts 153°
2026-05-06 02:58 39.58148 -104.79955 8968 ft 188 kts 119°
2026-05-06 02:58 39.57921 -104.78334 8980 ft 187 kts 89°
2026-05-06 02:58 39.58015 -104.76640 8969 ft 189 kts 87°
2026-05-06 02:59 39.58115 -104.74945 8964 ft 187 kts 87°
2026-05-06 02:59 39.58220 -104.73261 8968 ft 188 kts 87°
2026-05-06 02:59 39.58403 -104.71587 8961 ft 191 kts 71°
2026-05-06 02:59 39.59234 -104.70262 8968 ft 196 kts 33°
2026-05-06 03:00 39.60461 -104.69482 8957 ft 197 kts 23°
2026-05-06 03:00 39.61796 -104.69054 8961 ft 199 kts
2026-05-06 03:00 39.63178 -104.68949 8961 ft 200 kts
2026-05-06 03:00 39.64572 -104.68958 8959 ft 200 kts
2026-05-06 03:01 39.65960 -104.68945 8960 ft 199 kts
2026-05-06 03:01 39.67350 -104.68930 8960 ft 201 kts
2026-05-06 03:01 39.68746 -104.68914 8911 ft 201 kts
2026-05-06 03:01 39.70139 -104.68899 8668 ft 199 kts
2026-05-06 03:02 39.71515 -104.68884 8391 ft 196 kts
2026-05-06 03:02 39.72855 -104.68868 8121 ft 194 kts
2026-05-06 03:02 39.74199 -104.68854 7856 ft 193 kts
2026-05-06 03:02 39.75526 -104.68839 7597 ft 190 kts
2026-05-06 03:03 39.76846 -104.68823 7346 ft 190 kts
2026-05-06 03:03 39.78141 -104.68810 7139 ft 179 kts
2026-05-06 03:03 39.79334 -104.68797 6894 ft 164 kts
2026-05-06 03:03 39.80419 -104.68786 6710 ft 148 kts
2026-05-06 03:04 39.81405 -104.68774 6500 ft 138 kts
2026-05-06 03:04 39.82367 -104.68761 6271 ft 138 kts
2026-05-06 03:04 39.83319 -104.68752 6045 ft 134 kts
2026-05-06 03:04 39.83939 -104.68744 5908 ft 130 kts
2026-05-06 03:05 39.84845 -104.68732 5714 ft 129 kts 360°
2026-05-06 03:05 39.85750 -104.68723 5526 ft 131 kts 359°
2026-05-06 03:05 39.86661 -104.68711 5390 ft 130 kts
2026-05-06 03:05 39.87468 -104.68704 5365 ft 91 kts
2026-05-06 03:06 39.87943 -104.68699 5368 ft 56 kts
2026-05-06 03:06 39.88288 -104.68689 5364 ft 46 kts
2026-05-06 03:06 39.88546 -104.68613 5363 ft 19 kts 28°
2026-05-06 03:06 39.88616 -104.68545 5364 ft 8 kts 64°
2026-05-06 03:07 39.88584 -104.68484 5365 ft 10 kts 163°
2026-05-06 03:07 39.88501 -104.68481 5366 ft 13 kts 179°
2026-05-06 03:07 39.88397 -104.68480 5364 ft 16 kts 180°
2026-05-06 03:07 39.88277 -104.68481 5366 ft 19 kts 181°
2026-05-06 03:08 39.88137 -104.68485 5365 ft 21 kts 181°
2026-05-06 03:08 39.87985 -104.68485 5365 ft 23 kts 180°
2026-05-06 03:08 39.87816 -104.68487 5366 ft 25 kts 180°
2026-05-06 03:08 39.87633 -104.68490 5364 ft 27 kts 180°
2026-05-06 03:09 39.87448 -104.68492 5365 ft 21 kts 181°
2026-05-06 03:09 39.87293 -104.68493 5365 ft 23 kts 181°
2026-05-06 03:09 39.87124 -104.68496 5365 ft 25 kts 181°
2026-05-06 03:09 39.86968 -104.68500 5366 ft 18 kts 182°
2026-05-06 03:10 39.86836 -104.68499 5364 ft 20 kts 180°
2026-05-06 03:10 39.86688 -104.68501 5364 ft 23 kts 180°
2026-05-06 03:10 39.86524 -104.68502 5366 ft 25 kts 180°
2026-05-06 03:10 39.86349 -104.68504 5365 ft 22 kts 181°
2026-05-06 03:11 39.86238 -104.68507 5363 ft 16 kts 181°
2026-05-06 03:11 39.86119 -104.68507 5364 ft 18 kts 181°
2026-05-06 03:11 39.85983 -104.68509 5364 ft 21 kts 180°
2026-05-06 03:11 39.85831 -104.68510 5367 ft 23 kts 180°
2026-05-06 03:12 39.85711 -104.68505 5364 ft 13 kts 157°
2026-05-06 03:12 39.85688 -104.68392 5363 ft 15 kts 90°
2026-05-06 03:12 39.85690 -104.68248 5363 ft 15 kts 78°
2026-05-06 03:12 39.85736 -104.68120 5363 ft 17 kts 77°
2026-05-06 03:13 39.85739 -104.67960 5366 ft 19 kts 90°
2026-05-06 03:13 39.85738 -104.67780 5366 ft 21 kts 90°
2026-05-06 03:13 39.85737 -104.67581 5363 ft 23 kts 90°
2026-05-06 03:13 39.85735 -104.67367 5364 ft 25 kts 90°
2026-05-06 03:14 39.85733 -104.67159 5366 ft 15 kts 90°
2026-05-06 03:14 39.85731 -104.67014 5366 ft 17 kts 93°
2026-05-06 03:14 39.85735 -104.66918 5366 ft 6 kts 54°
2026-05-06 03:14 39.85749 -104.66909 5364 ft 2 kts 13°
2026-05-06 03:15 39.85768 -104.66910 5366 ft 4 kts 355°
2026-05-06 03:15 39.85798 -104.66911 5366 ft 3 kts
2026-05-06 03:15 39.85806 -104.66911 5366 ft 0 kts